QPF
0.02 0.04 0.03 0.01 0.01 0.01 0.01 0.00 0.00 0.00 0.00 0.00 0.01 0.01 0.02 0.02 0.02 0.02 0.02 0.02 0.02 0.03 0.04 0.04 0.04 0.04 0.04 0.05 0.06 0.08 0.10 0.12 0.11 0.13 0.11 0.08 0.06 0.06 0.08 0.07 0.06 0.05 0.05
0.01 0.02 0.02 0.01 0.01 0.00 0.00 0.00 0.00 0.00 0.00 0.00 0.00 0.01 0.01 0.01 0.01 0.01 0.02 0.02 0.02 0.02 0.02 0.03 0.03 0.03 0.04 0.04 0.06 0.06 0.08 0.12 0.12 0.13 0.11 0.09 0.08 0.06 0.05 0.05 0.05 0.04 0.04
0.01 0.01 0.02 0.02 0.01 0.00 0.00 0.00 0.00 0.00 0.00 0.00 0.00 0.00 0.01 0.01 0.01 0.01 0.01 0.02 0.02 0.02 0.02 0.01 0.02 0.03 0.03 0.05 0.05 0.05 0.12 0.18 0.15 0.12 0.10 0.10 0.09 0.08 0.07 0.06 0.05 0.04 0.03
0.01 0.02 0.03 0.04 0.02 0.00 0.00 0.00 0.00 0.00 0.00 0.01 0.00 0.00 0.00 0.01 0.01 0.01 0.02 0.02 0.01 0.01 0.01 0.02 0.02 0.03 0.04 0.05 0.04 0.05 0.10 0.15 0.16 0.15 0.11 0.07 0.07 0.08 0.07 0.06 0.06 0.05 0.03
0.02 0.06 0.07 0.07 0.05 0.02 0.01 0.01 0.01 0.00 0.00 0.00 0.00 0.01 0.01 0.01 0.01 0.02 0.03 0.04 0.03 0.02 0.02 0.02 0.03 0.04 0.05 0.06 0.06 0.07 0.08 0.12 0.15 0.15 0.13 0.10 0.07 0.06 0.07 0.07 0.07 0.06 0.03
0.02 0.04 0.05 0.05 0.04 0.03 0.02 0.01 0.00 0.00 0.00 0.00 0.00 0.00 0.01 0.02 0.03 0.04 0.04 0.04 0.05 0.04 0.03 0.03 0.03 0.03 0.04 0.05 0.06 0.08 0.09 0.13 0.15 0.14 0.12 0.10 0.08 0.07 0.06 0.06 0.09 0.07 0.04
0.00 0.00 0.00 0.01 0.00 0.01 0.01 0.00 0.00 0.01 0.01 0.01 0.01 0.01 0.01 0.02 0.05 0.05 0.05 0.05 0.05 0.04 0.04 0.03 0.03 0.04 0.04 0.05 0.06 0.07 0.09 0.12 0.13 0.13 0.12 0.09 0.07 0.08 0.08 0.07 0.07 0.06 0.04
0.00 0.00 0.00 0.00 0.00 0.00 0.00 0.00 0.01 0.01 0.01 0.01 0.01 0.01 0.02 0.04 0.05 0.06 0.06 0.05 0.04 0.04 0.03 0.04 0.04 0.05 0.05 0.04 0.04 0.04 0.05 0.07 0.08 0.10 0.10 0.07 0.06 0.07 0.08 0.08 0.08 0.07 0.05
0.00 0.00 0.00 0.00 0.00 0.00 0.00 0.00 0.01 0.01 0.01 0.02 0.02 0.03 0.05 0.07 0.07 0.07 0.06 0.05 0.04 0.04 0.04 0.05 0.04 0.04 0.04 0.03 0.03 0.03 0.04 0.04 0.06 0.08 0.08 0.05 0.03 0.05 0.06 0.07 0.08 0.07 0.06
0.00 0.00 0.00 0.00 0.00 0.01 0.01 0.01 0.01 0.02 0.03 0.03 0.03 0.05 0.08 0.08 0.08 0.09 0.09 0.08 0.06 0.05 0.05 0.05 0.04 0.03 0.04 0.04 0.03 0.03 0.03 0.04 0.06 0.06 0.05 0.03 0.02 0.03 0.05 0.06 0.08 0.07 0.06
0.00 0.00 0.01 0.01 0.02 0.03 0.02 0.02 0.03 0.03 0.04 0.04 0.04 0.06 0.08 0.09 0.10 0.11 0.10 0.08 0.06 0.04 0.04 0.05 0.04 0.04 0.04 0.03 0.02 0.02 0.03 0.04 0.05 0.04 0.04 0.03 0.03 0.04 0.05 0.07 0.08 0.08 0.06
0.01 0.01 0.02 0.02 0.02 0.03 0.02 0.02 0.02 0.03 0.04 0.04 0.05 0.09 0.11 0.11 0.13 0.12 0.09 0.08 0.06 0.05 0.05 0.04 0.04 0.04 0.03 0.03 0.02 0.02 0.02 0.03 0.03 0.03 0.03 0.03 0.03 0.05 0.06 0.08 0.07 0.06 0.06
0.01 0.02 0.02 0.02 0.03 0.04 0.03 0.02 0.02 0.02 0.03 0.03 0.03 0.06 0.09 0.10 0.12 0.13 0.11 0.09 0.07 0.05 0.04 0.04 0.03 0.03 0.03 0.02 0.02 0.02 0.02 0.02 0.02 0.03 0.03 0.02 0.03 0.04 0.05 0.06 0.05 0.05 0.05
0.01 0.02 0.03 0.03 0.03 0.03 0.02 0.02 0.02 0.03 0.05 0.05 0.04 0.06 0.08 0.12 0.14 0.15 0.12 0.07 0.04 0.03 0.03 0.04 0.03 0.03 0.02 0.01 0.01 0.01 0.01 0.02 0.02 0.02 0.02 0.02 0.02 0.02 0.04 0.05 0.05 0.04 0.04
0.02 0.02 0.03 0.03 0.02 0.02 0.02 0.03 0.04 0.06 0.07 0.08 0.09 0.08 0.10 0.15 0.15 0.13 0.10 0.07 0.04 0.03 0.03 0.03 0.03 0.02 0.02 0.01 0.02 0.02 0.02 0.02 0.02 0.02 0.02 0.01 0.01 0.02 0.02 0.02 0.03 0.04 0.03
0.03 0.04 0.04 0.03 0.02 0.02 0.01 0.02 0.03 0.05 0.05 0.06 0.06 0.07 0.08 0.10 0.09 0.07 0.05 0.03 0.03 0.03 0.02 0.03 0.04 0.03 0.02 0.02 0.02 0.03 0.03 0.03 0.02 0.02 0.02 0.01 0.01 0.01 0.01 0.01 0.02 0.02 0.02
0.03 0.04 0.04 0.03 0.03 0.02 0.02 0.03 0.03 0.05 0.07 0.07 0.06 0.05 0.05 0.07 0.07 0.06 0.04 0.03 0.03 0.02 0.02 0.03 0.04 0.04 0.03 0.03 0.02 0.03 0.04 0.04 0.03 0.03 0.02 0.02 0.01 0.02 0.01 0.01 0.01 0.01 0.01
0.03 0.03 0.03 0.02 0.01 0.02 0.02 0.04 0.05 0.06 0.07 0.07 0.07 0.06 0.06 0.06 0.05 0.04 0.03 0.02 0.03 0.03 0.03 0.04 0.04 0.04 0.04 0.04 0.03 0.03 0.03 0.03 0.03 0.03 0.03 0.03 0.02 0.03 0.03 0.02 0.02 0.01 0.01
0.01 0.01 0.01 0.01 0.01 0.02 0.02 0.03 0.04 0.06 0.06 0.05 0.05 0.05 0.06 0.04 0.03 0.02 0.02 0.02 0.03 0.04 0.03 0.03 0.04 0.03 0.04 0.05 0.04 0.03 0.03 0.03 0.03 0.03 0.03 0.03 0.02 0.03 0.03 0.04 0.03 0.02 0.02
0.01 0.01 0.01 0.01 0.01 0.02 0.02 0.03 0.04 0.04 0.05 0.04 0.04 0.05 0.04 0.03 0.02 0.01 0.01 0.01 0.02 0.03 0.04 0.04 0.04 0.03 0.03 0.03 0.03 0.03 0.03 0.03 0.02 0.02 0.02 0.02 0.03 0.03 0.02 0.03 0.03 0.02 0.02
0.01 0.01 0.01 0.01 0.01 0.02 0.02 0.03 0.04 0.02 0.02 0.02 0.01 0.02 0.02 0.02 0.02 0.01 0.02 0.02 0.02 0.03 0.03 0.02 0.02 0.02 0.03 0.03 0.03 0.02 0.02 0.02 0.02 0.02 0.01 0.02 0.03 0.02 0.02 0.02 0.02 0.02 0.02
0.01 0.01 0.01 0.00 0.01 0.02 0.04 0.05 0.03 0.02 0.01 0.02 0.02 0.03 0.03 0.03 0.02 0.02 0.02 0.02 0.02 0.03 0.03 0.02 0.02 0.02 0.02 0.03 0.03 0.03 0.03 0.02 0.02 0.03 0.03 0.03 0.03 0.03 0.02 0.02 0.02 0.02 0.02
0.01 0.00 0.00 0.00 0.02 0.03 0.03 0.05 0.03 0.02 0.02 0.02 0.02 0.02 0.03 0.04 0.05 0.04 0.03 0.02 0.02 0.02 0.03 0.03 0.03 0.03 0.03 0.03 0.04 0.05 0.05 0.05 0.05 0.04 0.03 0.03 0.02 0.02 0.02 0.01 0.01 0.01 0.02
0.01 0.01 0.01 0.01 0.02 0.03 0.03 0.03 0.04 0.03 0.03 0.02 0.02 0.03 0.02 0.04 0.05 0.06 0.05 0.04 0.03 0.03 0.03 0.04 0.04 0.05 0.06 0.06 0.07 0.07 0.06 0.05 0.04 0.04 0.03 0.03 0.02 0.02 0.02 0.02 0.02 0.02 0.03
0.01 0.01 0.01 0.01 0.02 0.03 0.03 0.03 0.04 0.04 0.03 0.03 0.03 0.04 0.04 0.06 0.07 0.08 0.08 0.08 0.08 0.06 0.05 0.06 0.07 0.07 0.07 0.07 0.06 0.05 0.04 0.04 0.04 0.04 0.03 0.03 0.02 0.02 0.02 0.03 0.04 0.05 0.04
0.01 0.01 0.01 0.02 0.02 0.03 0.04 0.04 0.05 0.06 0.06 0.05 0.04 0.04 0.06 0.09 0.11 0.11 0.10 0.09 0.08 0.06 0.05 0.05 0.04 0.04 0.04 0.05 0.05 0.04 0.04 0.03 0.03 0.03 0.03 0.02 0.03 0.03 0.04 0.05 0.05 0.04 0.04
MSLP
1011.47 1011.72 1011.96 1012.18 1012.39 1012.62 1012.88 1013.20 1013.58 1014.03 1014.52 1015.03 1015.53 1015.98 1016.37 1016.68 1016.91 1017.06 1017.15 1017.20 1017.22 1017.22 1017.21 1017.19 1017.16 1017.11 1017.03 1016.94 1016.82 1016.67 1016.51 1016.32 1016.10 1015.85 1015.55 1015.22 1014.85 1014.46 1014.05 1013.66 1013.31 1013.02 1012.81
1011.38 1011.73 1012.04 1012.30 1012.53 1012.75 1012.98 1013.26 1013.60 1013.99 1014.44 1014.91 1015.37 1015.79 1016.14 1016.41 1016.59 1016.71 1016.78 1016.82 1016.85 1016.88 1016.91 1016.95 1016.97 1016.97 1016.94 1016.88 1016.79 1016.67 1016.54 1016.39 1016.22 1016.03 1015.80 1015.53 1015.21 1014.84 1014.43 1014.01 1013.58 1013.20 1012.89
1011.04 1011.49 1011.88 1012.21 1012.48 1012.72 1012.95 1013.21 1013.52 1013.89 1014.31 1014.76 1015.19 1015.58 1015.89 1016.13 1016.27 1016.36 1016.40 1016.43 1016.46 1016.51 1016.58 1016.66 1016.73 1016.78 1016.80 1016.77 1016.72 1016.63 1016.53 1016.43 1016.31 1016.19 1016.03 1015.84 1015.59 1015.27 1014.87 1014.43 1013.95 1013.49 1013.08
1010.46 1011.00 1011.49 1011.90 1012.24 1012.52 1012.78 1013.05 1013.36 1013.73 1014.14 1014.57 1014.99 1015.36 1015.66 1015.86 1015.98 1016.03 1016.05 1016.05 1016.08 1016.14 1016.24 1016.35 1016.46 1016.55 1016.60 1016.61 1016.58 1016.53 1016.46 1016.39 1016.33 1016.26 1016.19 1016.07 1015.89 1015.63 1015.28 1014.84 1014.34 1013.82 1013.32
1009.73 1010.35 1010.92 1011.42 1011.84 1012.18 1012.49 1012.79 1013.13 1013.51 1013.93 1014.37 1014.79 1015.15 1015.44 1015.62 1015.72 1015.74 1015.73 1015.72 1015.74 1015.80 1015.90 1016.03 1016.17 1016.28 1016.36 1016.39 1016.38 1016.33 1016.28 1016.23 1016.21 1016.19 1016.18 1016.13 1016.03 1015.85 1015.55 1015.15 1014.65 1014.10 1013.54
1008.95 1009.62 1010.27 1010.85 1011.34 1011.75 1012.11 1012.46 1012.83 1013.23 1013.67 1014.13 1014.55 1014.93 1015.21 1015.39 1015.47 1015.48 1015.45 1015.42 1015.43 1015.48 1015.58 1015.72 1015.86 1015.99 1016.07 1016.10 1016.09 1016.04 1015.98 1015.93 1015.92 1015.93 1015.96 1015.98 1015.95 1015.84 1015.62 1015.27 1014.82 1014.28 1013.71
1008.22 1008.92 1009.61 1010.25 1010.80 1011.27 1011.68 1012.07 1012.47 1012.90 1013.36 1013.83 1014.27 1014.65 1014.94 1015.13 1015.21 1015.21 1015.18 1015.14 1015.13 1015.17 1015.27 1015.40 1015.54 1015.67 1015.74 1015.77 1015.73 1015.66 1015.57 1015.51 1015.47 1015.49 1015.54 1015.59 1015.62 1015.59 1015.45 1015.18 1014.80 1014.31 1013.77
1007.61 1008.30 1009.01 1009.67 1010.26 1010.77 1011.21 1011.63 1012.05 1012.49 1012.97 1013.44 1013.90 1014.29 1014.59 1014.79 1014.88 1014.90 1014.87 1014.83 1014.82 1014.86 1014.95 1015.08 1015.22 1015.33 1015.39 1015.39 1015.33 1015.21 1015.09 1014.98 1014.91 1014.90 1014.94 1015.01 1015.08 1015.11 1015.05 1014.89 1014.60 1014.20 1013.72
1007.16 1007.80 1008.49 1009.14 1009.73 1010.24 1010.69 1011.12 1011.54 1011.99 1012.46 1012.94 1013.40 1013.81 1014.13 1014.34 1014.46 1014.50 1014.49 1014.48 1014.48 1014.53 1014.62 1014.75 1014.88 1014.98 1015.02 1015.00 1014.90 1014.75 1014.57 1014.41 1014.29 1014.24 1014.25 1014.32 1014.41 1014.49 1014.50 1014.43 1014.25 1013.96 1013.58
1006.84 1007.41 1008.03 1008.64 1009.19 1009.68 1010.12 1010.53 1010.95 1011.38 1011.84 1012.31 1012.77 1013.18 1013.52 1013.77 1013.92 1014.00 1014.03 1014.05 1014.08 1014.15 1014.26 1014.39 1014.52 1014.62 1014.65 1014.61 1014.49 1014.30 1014.08 1013.86 1013.69 1013.59 1013.56 1013.60 1013.70 1013.80 1013.88 1013.90 1013.82 1013.65 1013.38
1006.61 1007.08 1007.61 1008.13 1008.63 1009.07 1009.47 1009.85 1010.24 1010.65 1011.10 1011.56 1012.01 1012.43 1012.79 1013.07 1013.27 1013.39 1013.48 1013.54 1013.62 1013.72 1013.85 1013.99 1014.13 1014.23 1014.26 1014.21 1014.08 1013.88 1013.63 1013.38 1013.17 1013.01 1012.95 1012.96 1013.04 1013.16 1013.28 1013.37 1013.38 1013.31 1013.16
1006.43 1006.77 1007.18 1007.61 1008.02 1008.40 1008.75 1009.09 1009.45 1009.84 1010.26 1010.70 1011.15 1011.57 1011.96 1012.27 1012.51 1012.69 1012.83 1012.95 1013.07 1013.21 1013.37 1013.53 1013.68 1013.79 1013.83 1013.79 1013.67 1013.47 1013.23 1012.97 1012.73 1012.55 1012.45 1012.44 1012.50 1012.62 1012.76 1012.89 1012.98 1013.00 1012.94
1006.24 1006.45 1006.73 1007.04 1007.36 1007.67 1007.97 1008.27 1008.60 1008.96 1009.36 1009.79 1010.23 1010.66 1011.06 1011.41 1011.69 1011.92 1012.12 1012.28 1012.45 1012.61 1012.79 1012.97 1013.13 1013.26 1013.32 1013.30 1013.21 1013.04 1012.82 1012.59 1012.37 1012.19 1012.08 1012.05 1012.10 1012.21 1012.35 1012.51 1012.63 1012.72 1012.73
1006.04 1006.10 1006.25 1006.45 1006.68 1006.91 1007.16 1007.43 1007.73 1008.07 1008.45 1008.87 1009.30 1009.73 1010.14 1010.51 1010.83 1011.10 1011.34 1011.54 1011.73 1011.92 1012.11 1012.30 1012.46 1012.59 1012.68 1012.69 1012.65 1012.53 1012.38 1012.20 1012.03 1011.89 1011.80 1011.78 1011.82 1011.92 1012.05 1012.21 1012.35 1012.47 1012.54
1005.81 1005.74 1005.76 1005.85 1005.99 1006.16 1006.36 1006.60 1006.88 1007.20 1007.56 1007.96 1008.39 1008.81 1009.23 1009.61 1009.95 1010.25 1010.51 1010.74 1010.94 1011.13 1011.31 1011.49 1011.65 1011.78 1011.88 1011.94 1011.95 1011.91 1011.84 1011.76 1011.67 1011.60 1011.57 1011.57 1011.62 1011.72 1011.84 1011.99 1012.13 1012.25 1012.34
1005.57 1005.37 1005.27 1005.26 1005.31 1005.43 1005.59 1005.80 1006.06 1006.36 1006.71 1007.10 1007.51 1007.92 1008.33 1008.72 1009.07 1009.38 1009.65 1009.88 1010.08 1010.25 1010.42 1010.57 1010.71 1010.83 1010.95 1011.04 1011.12 1011.17 1011.21 1011.24 1011.26 1011.29 1011.34 1011.40 1011.49 1011.59 1011.71 1011.83 1011.95 1012.06 1012.15
1005.31 1005.00 1004.80 1004.69 1004.68 1004.73 1004.86 1005.04 1005.28 1005.57 1005.90 1006.27 1006.66 1007.06 1007.46 1007.84 1008.19 1008.51 1008.77 1009.00 1009.18 1009.33 1009.46 1009.58 1009.69 1009.81 1009.93 1010.06 1010.20 1010.35 1010.50 1010.66 1010.82 1010.97 1011.12 1011.26 1011.40 1011.52 1011.64 1011.74 1011.83 1011.91 1011.98
1005.05 1004.63 1004.33 1004.15 1004.07 1004.08 1004.17 1004.33 1004.55 1004.82 1005.13 1005.47 1005.84 1006.23 1006.61 1006.99 1007.34 1007.65 1007.91 1008.13 1008.30 1008.43 1008.53 1008.61 1008.69 1008.80 1008.92 1009.08 1009.28 1009.52 1009.79 1010.08 1010.37 1010.66 1010.92 1011.16 1011.36 1011.52 1011.64 1011.72 1011.78 1011.82 1011.85
1004.75 1004.25 1003.87 1003.62 1003.48 1003.45 1003.51 1003.65 1003.84 1004.09 1004.38 1004.70 1005.06 1005.42 1005.80 1006.17 1006.52 1006.84 1007.11 1007.33 1007.50 1007.61 1007.70 1007.76 1007.82 1007.91 1008.04 1008.23 1008.48 1008.80 1009.17 1009.57 1009.99 1010.40 1010.78 1011.11 1011.38 1011.58 1011.71 1011.78 1011.81 1011.81 1011.79
1004.41 1003.85 1003.41 1003.10 1002.92 1002.85 1002.88 1003.00 1003.17 1003.40 1003.67 1003.97 1004.31 1004.67 1005.04 1005.42 1005.78 1006.12 1006.41 1006.65 1006.84 1006.96 1007.05 1007.11 1007.17 1007.25 1007.39 1007.60 1007.89 1008.26 1008.70 1009.20 1009.72 1010.23 1010.70 1011.11 1011.45 1011.69 1011.84 1011.91 1011.91 1011.88 1011.81
1004.03 1003.42 1002.94 1002.60 1002.39 1002.30 1002.32 1002.41 1002.57 1002.78 1003.03 1003.32 1003.64 1003.99 1004.37 1004.76 1005.15 1005.52 1005.86 1006.14 1006.36 1006.52 1006.63 1006.70 1006.78 1006.87 1007.02 1007.24 1007.55 1007.96 1008.44 1008.99 1009.57 1010.15 1010.69 1011.16 1011.53 1011.81 1011.98 1012.06 1012.05 1011.99 1011.89
1003.63 1003.00 1002.51 1002.15 1001.94 1001.84 1001.85 1001.93 1002.07 1002.27 1002.50 1002.77 1003.09 1003.44 1003.82 1004.23 1004.66 1005.07 1005.45 1005.79 1006.07 1006.28 1006.44 1006.56 1006.66 1006.77 1006.93 1007.16 1007.48 1007.88 1008.37 1008.93 1009.53 1010.12 1010.68 1011.18 1011.59 1011.89 1012.08 1012.16 1012.16 1012.09 1011.98
1003.25 1002.63 1002.15 1001.82 1001.62 1001.53 1001.53 1001.61 1001.74 1001.91 1002.13 1002.38 1002.68 1003.02 1003.41 1003.84 1004.30 1004.75 1005.19 1005.59 1005.94 1006.22 1006.44 1006.61 1006.75 1006.89 1007.06 1007.29 1007.59 1007.97 1008.43 1008.96 1009.52 1010.09 1010.64 1011.13 1011.53 1011.85 1012.05 1012.16 1012.18 1012.14 1012.04
1002.93 1002.37 1001.93 1001.64 1001.47 1001.40 1001.41 1001.48 1001.60 1001.75 1001.94 1002.17 1002.44 1002.77 1003.15 1003.58 1004.06 1004.54 1005.03 1005.49 1005.90 1006.25 1006.54 1006.77 1006.96 1007.13 1007.31 1007.53 1007.80 1008.13 1008.53 1008.99 1009.48 1009.99 1010.48 1010.93 1011.32 1011.63 1011.85 1011.99 1012.06 1012.06 1012.01
1002.73 1002.24 1001.88 1001.65 1001.52 1001.47 1001.49 1001.56 1001.65 1001.77 1001.92 1002.11 1002.34 1002.64 1003.00 1003.41 1003.89 1004.39 1004.91 1005.41 1005.88 1006.29 1006.64 1006.93 1007.16 1007.37 1007.56 1007.77 1008.00 1008.27 1008.59 1008.96 1009.36 1009.77 1010.18 1010.57 1010.92 1011.21 1011.45 1011.63 1011.76 1011.83 1011.86
1002.67 1002.28 1002.00 1001.83 1001.74 1001.72 1001.74 1001.78 1001.85 1001.92 1002.02 1002.16 1002.34 1002.58 1002.90 1003.29 1003.74 1004.23 1004.76 1005.28 1005.78 1006.24 1006.65 1006.99 1007.27 1007.50 1007.71 1007.91 1008.10 1008.32 1008.56 1008.83 1009.12 1009.43 1009.75 1010.06 1010.36 1010.64 1010.89 1011.12 1011.31 1011.46 1011.59
Thickness
5827 5825 5822 5820 5816 5811 5806 5803 5800 5797 5794 5792 5789 5786 5784 5784 5783 5782 5778 5776 5774 5772 5770 5771 5768 5767 5766 5763 5763 5762 5760 5760 5760 5757 5756 5760 5763 5762 5762 5762 5763 5762 5760
5826 5823 5822 5820 5817 5812 5808 5804 5801 5798 5796 5793 5790 5788 5786 5785 5783 5781 5777 5776 5774 5772 5772 5769 5769 5768 5764 5762 5761 5759 5758 5759 5758 5755 5751 5750 5752 5755 5760 5759 5758 5759 5758
5827 5824 5821 5820 5819 5814 5811 5808 5803 5800 5797 5795 5793 5790 5786 5783 5782 5779 5778 5776 5774 5772 5770 5768 5768 5766 5766 5763 5760 5758 5755 5755 5756 5755 5750 5745 5744 5749 5754 5754 5755 5754 5755
5832 5828 5824 5822 5820 5817 5814 5809 5804 5800 5797 5794 5792 5788 5784 5781 5779 5779 5778 5776 5773 5771 5769 5767 5766 5764 5765 5761 5761 5759 5757 5753 5752 5752 5750 5749 5747 5743 5744 5749 5752 5752 5751
5835 5831 5828 5825 5823 5820 5816 5810 5804 5799 5796 5793 5790 5787 5785 5783 5782 5779 5776 5773 5773 5771 5769 5767 5765 5763 5763 5760 5758 5756 5755 5755 5752 5750 5749 5746 5745 5745 5740 5739 5743 5747 5750
5837 5833 5830 5826 5823 5820 5815 5811 5804 5799 5796 5792 5789 5785 5782 5779 5776 5774 5773 5772 5773 5771 5769 5766 5764 5762 5761 5758 5757 5755 5754 5752 5750 5750 5748 5745 5743 5742 5740 5737 5737 5739 5744
5837 5832 5828 5824 5820 5817 5814 5810 5804 5798 5795 5792 5788 5785 5781 5778 5774 5773 5772 5770 5770 5769 5766 5765 5762 5761 5759 5757 5755 5753 5752 5750 5748 5746 5746 5746 5744 5743 5740 5737 5736 5735 5739
5838 5833 5829 5824 5820 5816 5812 5808 5803 5797 5794 5790 5786 5783 5780 5779 5777 5773 5772 5770 5768 5767 5765 5762 5760 5758 5756 5755 5753 5752 5750 5748 5746 5745 5742 5742 5742 5741 5739 5736 5732 5729 5732
5835 5832 5829 5825 5820 5815 5811 5807 5801 5796 5792 5789 5784 5780 5778 5776 5773 5771 5770 5768 5765 5765 5762 5760 5758 5756 5754 5751 5750 5749 5746 5745 5744 5743 5740 5739 5739 5738 5737 5735 5732 5726 5723
5832 5830 5827 5823 5819 5815 5809 5805 5799 5793 5790 5787 5783 5780 5775 5773 5770 5767 5764 5761 5760 5759 5756 5755 5754 5753 5751 5748 5746 5745 5743 5740 5739 5737 5734 5732 5734 5733 5731 5730 5728 5727 5723
5827 5825 5822 5819 5815 5811 5805 5800 5796 5790 5786 5783 5780 5776 5773 5769 5765 5762 5759 5756 5755 5753 5752 5751 5750 5748 5746 5744 5742 5741 5738 5736 5734 5733 5731 5728 5726 5726 5726 5725 5724 5722 5720
5821 5819 5815 5812 5808 5804 5800 5796 5792 5787 5783 5780 5776 5771 5768 5765 5761 5757 5754 5752 5750 5748 5747 5747 5746 5744 5742 5739 5737 5736 5734 5731 5729 5727 5725 5723 5722 5719 5718 5717 5717 5716 5714
5811 5810 5806 5802 5799 5796 5793 5790 5787 5783 5781 5776 5772 5767 5764 5761 5756 5753 5749 5747 5744 5743 5743 5743 5741 5740 5738 5735 5733 5731 5729 5727 5725 5723 5720 5718 5716 5713 5712 5710 5711 5711 5711
5799 5799 5796 5793 5790 5788 5785 5782 5780 5777 5774 5770 5766 5762 5759 5756 5753 5749 5744 5741 5739 5738 5738 5738 5737 5736 5734 5732 5729 5727 5724 5721 5719 5718 5715 5714 5711 5708 5705 5704 5703 5703 5702
5789 5788 5786 5784 5781 5779 5777 5774 5773 5770 5767 5762 5759 5756 5754 5751 5747 5743 5739 5736 5734 5735 5734 5733 5732 5731 5729 5728 5724 5721 5720 5716 5713 5712 5710 5709 5706 5701 5699 5699 5698 5696 5695
5781 5781 5779 5776 5773 5771 5769 5767 5765 5763 5760 5755 5751 5749 5746 5744 5740 5736 5734 5732 5731 5729 5728 5727 5726 5724 5725 5719 5714 5712 5712 5710 5707 5705 5704 5702 5699 5695 5691 5689 5688 5686 5686
5774 5773 5771 5769 5766 5764 5762 5759 5757 5755 5751 5747 5744 5742 5740 5737 5734 5731 5729 5727 5727 5725 5723 5721 5719 5717 5714 5709 5706 5704 5705 5704 5701 5699 5696 5696 5695 5690 5687 5684 5681 5680 5679
5767 5766 5766 5764 5763 5761 5757 5753 5750 5746 5742 5739 5736 5735 5733 5730 5727 5724 5722 5721 5721 5719 5716 5715 5713 5710 5707 5702 5699 5697 5697 5697 5695 5692 5689 5686 5684 5683 5679 5679 5678 5677 5675
5761 5759 5760 5759 5756 5753 5750 5746 5742 5738 5734 5731 5729 5727 5725 5722 5720 5717 5716 5715 5713 5711 5709 5708 5706 5703 5700 5695 5691 5688 5691 5690 5688 5686 5683 5680 5677 5672 5669 5669 5669 5669 5668
5752 5751 5750 5749 5745 5743 5741 5737 5733 5730 5726 5724 5722 5720 5718 5716 5713 5711 5709 5709 5707 5704 5703 5701 5699 5697 5694 5689 5684 5681 5684 5682 5681 5679 5676 5672 5669 5664 5661 5661 5661 5661 5661
5742 5741 5740 5738 5736 5734 5731 5727 5723 5721 5720 5718 5716 5714 5711 5709 5708 5705 5703 5701 5699 5697 5695 5694 5692 5690 5687 5682 5678 5674 5674 5674 5673 5672 5670 5668 5661 5656 5653 5652 5654 5653 5652
5731 5730 5728 5726 5726 5724 5721 5716 5713 5713 5711 5709 5707 5705 5704 5703 5702 5698 5695 5693 5690 5688 5688 5686 5684 5684 5681 5676 5671 5666 5663 5661 5662 5662 5662 5659 5652 5648 5646 5645 5644 5643 5642
5721 5720 5718 5716 5715 5713 5711 5706 5704 5703 5702 5699 5697 5696 5695 5694 5693 5691 5689 5686 5683 5683 5682 5680 5678 5676 5674 5670 5663 5659 5655 5652 5652 5653 5650 5647 5643 5641 5641 5639 5637 5636 5638
5711 5710 5708 5706 5703 5703 5701 5699 5697 5694 5691 5689 5688 5687 5686 5685 5684 5682 5681 5679 5677 5675 5673 5671 5670 5668 5665 5662 5657 5654 5650 5646 5645 5645 5642 5638 5637 5636 5635 5634 5634 5633 5634
5701 5700 5698 5695 5693 5692 5690 5689 5687 5685 5682 5680 5680 5679 5679 5678 5674 5672 5670 5669 5666 5664 5660 5661 5659 5657 5654 5649 5642 5641 5642 5640 5638 5634 5635 5636 5635 5633 5632 5631 5630 5628 5627
5691 5690 5688 5686 5684 5682 5680 5680 5678 5676 5673 5672 5671 5670 5669 5667 5666 5663 5661 5657 5654 5651 5648 5646 5644 5645 5640 5635 5632 5630 5627 5625 5623 5624 5629 5630 5629 5627 5626 5625 5623 5622 5620